Weather History for KHCD - July, 2013

Change the Weather History Date:

Sunday, July 21, 2013

  Actual Average Record
Temperature  
Mean Temperature 72 °F -  
Max Temperature 82 °F 83 °F 93 °F (1959)
Min Temperature 62 °F 60 °F 50 °F (1992)
Cooling Degree Days 6    
Growing Degree Days 22 (Base 50)    
Moisture  
Dew Point 65 °F    
Average Humidity 80    
Maximum Humidity 97    
Minimum Humidity 62    
Precipitation  
Precipitation 0.37 in - - ()
Sea Level Pressure  
Sea Level Pressure 29.89 in    
Wind  
Wind Speed 6 mph (East)    
Max Wind Speed 12 mph    
Max Gust Speed 16 mph    
Visibility 10 miles    
Events Rain    
Averages and records for this station are not official NWS values.
T = Trace of Precipitation, MM = Missing Value Source: NWS Daily Summary

Daily Weather History Graph

Daily Weather History Graph

Search for Another Location

Airport or City:

Trip Planner

Search our weather history database for the weather conditions in past years. The results will help you decide how hot, cold, wet, or windy it might be!

Date:

Astronomy

Jul. 21, 2013 Rise Set
Actual Time 5:51 AM CDT 8:55 PM CDT
Civil Twilight 5:16 AM CDT 9:30 PM CDT
Nautical Twilight 4:31 AM CDT 10:15 PM CDT
Astronomical Twilight 3:37 AM CDT 11:09 PM CDT
Moon 7:52 PM CDT (7/21) 4:39 AM CDT (7/21)
Length of Visible Light 16h 13m
Length of Day
15h 03m
Waxing Gibbous, 98% of the Moon is Illuminated
Jul 21
Waxing Gibbous
Jul 22
Full
Jul 29
Last Quarter
Aug 6
New
Aug 14
First Quarter

Hourly Weather History & Observations

Time (CDT) Temp. Heat Index Dew Point Humidity Pressure Visibility Wind Dir Wind Speed Gust Speed Precip Events Conditions
12:14 AM 66.7 °F - 58.3 °F 74% 29.96 in 10.0 mi East 4.6 mph - N/A   Clear
12:34 AM 65.7 °F - 58.5 °F 78% 29.96 in 10.0 mi East 5.8 mph - N/A   Clear
12:53 AM 65.3 °F - 58.5 °F 78% 29.95 in 10.0 mi East 4.6 mph - N/A   Clear
1:14 AM 64.8 °F - 58.6 °F 81% 29.95 in 10.0 mi East 4.6 mph - N/A   Clear
1:34 AM 65.7 °F - 59.0 °F 79% 29.95 in 10.0 mi East 4.6 mph - N/A   Scattered Clouds
1:54 AM 66.4 °F - 59.0 °F 77% 29.94 in 10.0 mi East 4.6 mph - N/A   Mostly Cloudy
2:13 AM 66.9 °F - 58.5 °F 74% 29.94 in 10.0 mi East 6.9 mph - N/A   Mostly Cloudy
2:34 AM 66.7 °F - 58.1 °F 74% 29.94 in 10.0 mi East 5.8 mph - N/A   Mostly Cloudy
2:54 AM 67.1 °F - 57.9 °F 72% 29.92 in 10.0 mi East 5.8 mph - N/A   Mostly Cloudy
3:13 AM 67.1 °F - 57.7 °F 72% 29.92 in 10.0 mi East 6.9 mph - N/A   Overcast
3:34 AM 66.7 °F - 57.9 °F 73% 29.92 in 10.0 mi East 4.6 mph - N/A   Overcast
3:54 AM 66.6 °F - 58.1 °F 74% 29.92 in 10.0 mi East 5.8 mph - N/A   Mostly Cloudy
4:13 AM 66.2 °F - 58.1 °F 75% 29.92 in 10.0 mi NE 4.6 mph - N/A   Scattered Clouds
4:33 AM 65.5 °F - 59.0 °F 80% 29.92 in 10.0 mi NE 4.6 mph - N/A   Mostly Cloudy
4:54 AM 65.7 °F - 58.5 °F 78% 29.92 in 10.0 mi ENE 6.9 mph - N/A   Overcast
5:14 AM 66.0 °F - 58.1 °F 76% 29.92 in 10.0 mi ENE 5.8 mph - N/A   Overcast
5:33 AM 64.4 °F - 59.4 °F 84% 29.92 in 5.0 mi ENE 5.8 mph - 0.04 in Rain Rain
5:53 AM 63.1 °F - 60.4 °F 91% 29.92 in 10.0 mi ENE 10.4 mph - 0.06 in Rain Light Rain
6:14 AM 63.3 °F - 61.2 °F 93% 29.94 in 10.0 mi North 6.9 mph - N/A   Overcast
6:34 AM 62.6 °F - 61.5 °F 96% 29.94 in 4.0 mi Calm Calm - 0.07 in Rain Rain
6:54 AM 62.4 °F - 61.3 °F 96% 29.95 in 5.0 mi NNE 4.6 mph - 0.10 in Rain Light Rain
7:14 AM 62.6 °F - 61.7 °F 97% 29.93 in 2.5 mi East 8.1 mph - 0.21 in Rain Rain
7:34 AM 62.8 °F - 61.9 °F 97% 29.93 in 10.0 mi ENE 6.9 mph - 0.21 in   Overcast
7:53 AM 63.3 °F - 62.1 °F 96% 29.92 in 10.0 mi ENE 8.1 mph - 0.21 in   Overcast
8:14 AM 64.0 °F - 62.8 °F 96% 29.92 in 10.0 mi ENE 10.4 mph - N/A   Overcast
8:34 AM 63.5 °F - 62.1 °F 95% 29.92 in 10.0 mi East 4.6 mph - N/A   Overcast
8:53 AM 64.0 °F - 62.2 °F 94% 29.92 in 10.0 mi NE 4.6 mph - N/A   Mostly Cloudy
9:14 AM 64.4 °F - 62.4 °F 93% 29.92 in 10.0 mi ENE 6.9 mph - N/A   Scattered Clouds
9:34 AM 66.0 °F - 63.3 °F 91% 29.91 in 10.0 mi ENE 4.6 mph - N/A   Clear
9:54 AM 67.3 °F - 63.9 °F 89% 29.92 in 10.0 mi NE 6.9 mph - N/A   Clear
10:14 AM 68.9 °F - 64.8 °F 87% 29.92 in 10.0 mi NE 8.1 mph - N/A   Clear
10:33 AM 69.6 °F - 64.9 °F 85% 29.92 in 10.0 mi ENE 8.1 mph - N/A   Clear
10:54 AM 70.2 °F - 65.1 °F 84% 29.92 in 10.0 mi ENE 6.9 mph - N/A   Clear
11:14 AM 72.0 °F - 66.2 °F 82% 29.92 in 10.0 mi ENE 10.4 mph - N/A   Clear
11:33 AM 72.9 °F - 65.7 °F 78% 29.92 in 10.0 mi East 6.9 mph - N/A   Clear
11:54 AM 73.8 °F - 66.2 °F 77% 29.92 in 10.0 mi East 10.4 mph - N/A   Clear
12:14 PM 74.8 °F - 66.6 °F 75% 29.91 in 10.0 mi East 10.4 mph 16.1 mph N/A   Clear
12:33 PM 75.4 °F - 66.7 °F 74% 29.90 in 10.0 mi East 10.4 mph - N/A   Clear
12:54 PM 75.7 °F - 66.6 °F 73% 29.90 in 10.0 mi East 10.4 mph - N/A   Clear
1:14 PM 77.0 °F - 67.5 °F 72% 29.89 in 10.0 mi East 10.4 mph - N/A   Scattered Clouds
1:33 PM 77.2 °F - 66.4 °F 69% 29.89 in 10.0 mi ESE 9.2 mph - N/A   Scattered Clouds
1:54 PM 78.3 °F - 66.9 °F 68% 29.88 in 10.0 mi East 11.5 mph - N/A   Clear
2:13 PM 79.0 °F - 66.9 °F 66% 29.87 in 10.0 mi East 8.1 mph - N/A   Clear
2:33 PM 79.9 °F - 67.1 °F 65% 29.87 in 10.0 mi East 8.1 mph - N/A   Clear
2:54 PM 80.4 °F 83.1 °F 68.0 °F 66% 29.86 in 10.0 mi East 10.4 mph - N/A   Clear
3:14 PM 80.2 °F 82.8 °F 68.0 °F 66% 29.86 in 10.0 mi East 10.4 mph - N/A   Clear
3:33 PM 81.1 °F 84.2 °F 68.7 °F 66% 29.85 in 10.0 mi East 9.2 mph - N/A   Scattered Clouds
3:54 PM 81.5 °F 84.6 °F 68.5 °F 65% 29.85 in 10.0 mi ESE 10.4 mph - N/A   Scattered Clouds
4:14 PM 81.7 °F 84.5 °F 68.2 °F 63% 29.84 in 10.0 mi ESE 11.5 mph - N/A   Scattered Clouds
4:33 PM 81.5 °F 84.1 °F 67.3 °F 62% 29.84 in 10.0 mi SE 6.9 mph - N/A   Scattered Clouds
4:54 PM 81.5 °F 84.2 °F 67.8 °F 63% 29.84 in 10.0 mi ESE 9.2 mph - N/A   Clear
5:14 PM 80.8 °F 83.5 °F 68.0 °F 65% 29.84 in 10.0 mi ESE 8.1 mph - N/A   Clear
5:33 PM 78.8 °F - 68.9 °F 72% 29.84 in 10.0 mi ESE 8.1 mph - N/A   Clear
5:54 PM 80.6 °F 83.6 °F 69.1 °F 68% 29.84 in 10.0 mi SE 5.8 mph - N/A   Scattered Clouds
6:14 PM 80.2 °F 83.1 °F 68.7 °F 68% 29.83 in 10.0 mi SE 6.9 mph - N/A   Scattered Clouds
6:34 PM 80.1 °F 82.9 °F 69.1 °F 69% 29.83 in 10.0 mi SE 5.8 mph - N/A   Clear
6:54 PM 79.9 °F - 68.4 °F 68% 29.82 in 10.0 mi ESE 9.2 mph - N/A   Clear
7:14 PM 79.7 °F - 69.4 °F 71% 29.81 in 10.0 mi ESE 6.9 mph - N/A   Clear
7:33 PM 78.8 °F - 70.2 °F 75% 29.80 in 10.0 mi ESE 6.9 mph - N/A   Clear
7:54 PM 78.1 °F - 70.0 °F 76% 29.81 in 10.0 mi ESE 5.8 mph - N/A   Clear
8:11 PM 77.2 °F - 70.0 °F 78% 29.82 in 10.0 mi ESE 3.5 mph - N/A   Clear
8:34 PM 74.8 °F - 70.3 °F 86% 29.83 in 10.0 mi ESE 4.6 mph - N/A   Clear
8:54 PM 73.9 °F - 69.8 °F 87% 29.83 in 10.0 mi ESE 4.6 mph - N/A   Clear
9:13 PM 72.7 °F - 69.4 °F 90% 29.82 in 10.0 mi ESE 5.8 mph - N/A   Clear
9:33 PM 72.3 °F - 69.3 °F 90% 29.82 in 10.0 mi ESE 4.6 mph - N/A   Clear
9:54 PM 72.7 °F - 69.1 °F 88% 29.82 in 10.0 mi ESE 5.8 mph - N/A   Clear
10:13 PM 71.8 °F - 69.1 °F 91% 29.83 in 10.0 mi ESE 5.8 mph - N/A   Clear
10:33 PM 71.4 °F - 69.3 °F 93% 29.82 in 10.0 mi ESE 5.8 mph - N/A   Clear
10:54 PM 71.1 °F - 69.4 °F 95% 29.82 in 10.0 mi ESE 5.8 mph - N/A   Clear
11:13 PM 70.9 °F - 69.4 °F 95% 29.82 in 10.0 mi ESE 5.8 mph - N/A   Clear
11:34 PM 70.7 °F - 69.4 °F 96% 29.80 in 7.0 mi ESE 6.9 mph - N/A   Clear
11:53 PM 70.7 °F - 69.3 °F 95% 29.80 in 7.0 mi SE 5.8 mph - N/A   Clear